This is the latest recevied weather packets stored in our database for station/object F4BQH-13. If no packets are shown the sender has not sent any weather packets the latest 10 day(s).
| Time | Temp. | Humidity | Pressure | Rain* | Wind** | Luminosity | Snow |
|---|---|---|---|---|---|---|---|
| 1777394552 | 22.22° C | 54% | 1011.8 hPa | 0 mm | - | - | - |
| 1777394252 | 22.22° C | 54% | 1011.8 hPa | 0 mm | - | - | - |
| 1777393952 | 22.22° C | 53% | 1011.7 hPa | 0 mm | - | - | - |
| 1777393653 | 22.22° C | 52% | 1011.7 hPa | 0 mm | - | - | - |
| 1777393352 | 22.22° C | 52% | 1011.7 hPa | 0 mm | - | - | - |
| 1777393052 | 22.78° C | 52% | 1011.7 hPa | 0 mm | - | - | - |
| 1777392752 | 22.78° C | 51% | 1011.7 hPa | 0 mm | - | - | - |
| 1777392452 | 22.78° C | 50% | 1011.8 hPa | 0 mm | - | - | - |
| 1777392152 | 22.78° C | 50% | 1011.8 hPa | 0 mm | - | - | - |
| 1777391852 | 22.78° C | 49% | 1011.9 hPa | 0 mm | - | - | - |
| 1777391552 | 23.33° C | 49% | 1011.8 hPa | 0 mm | - | - | - |
| 1777391253 | 23.33° C | 49% | 1011.8 hPa | 0 mm | - | - | - |
| 1777390953 | 23.33° C | 49% | 1011.9 hPa | 0 mm | - | - | - |
| 1777390652 | 23.89° C | 48% | 1011.9 hPa | 0 mm | - | - | - |
| 1777390352 | 23.33° C | 49% | 1011.9 hPa | 0 mm | - | - | - |
| 1777390052 | 23.33° C | 48% | 1011.9 hPa | 0 mm | - | - | - |
| 1777389752 | 23.33° C | 47% | 1012 hPa | 0 mm | - | - | - |
| 1777389453 | 23.89° C | 46% | 1012 hPa | 0 mm | - | - | - |
| 1777389153 | 24.44° C | 48% | 1012.1 hPa | 0 mm | - | - | - |
| 1777388853 | 24.44° C | 48% | 1012.2 hPa | 0 mm | - | - | - |
| 1777388553 | 24.44° C | 48% | 1012.4 hPa | 0 mm | - | - | - |
| 1777388253 | 23.89° C | 49% | 1012.3 hPa | 0 mm | - | - | - |
| 1777387953 | 23.89° C | 48% | 1012.4 hPa | 0 mm | - | - | - |
| 1777387653 | 23.89° C | 47% | 1012.5 hPa | 0 mm | - | - | - |
| 1777387353 | 24.44° C | 47% | 1012.4 hPa | 0 mm | - | - | - |
* Rain latest hour (hover to see other rain measurements)
** Current wind speed in m/s (hover to see current wind gust speed)